TimePDT,TemperatureF,Dew PointF,Humidity,Sea Level PressureIn,VisibilityMPH,Wind Direction,Wind SpeedMPH,Gust SpeedMPH,PrecipitationIn,Events,Conditions,WindDirDegrees,DateUTC
12:53 AM,53.1,48.9,86,30.09,10.0,Calm,Calm,-,N/A,,Overcast,0,2012-10-14 07:53:00
1:53 AM,50.0,46.9,89,30.09,10.0,North,4.6,-,N/A,,Clear,350,2012-10-14 08:53:00
2:53 AM,50.0,48.0,93,30.08,10.0,Calm,Calm,-,N/A,,Clear,0,2012-10-14 09:53:00
3:53 AM,51.1,48.0,89,30.07,10.0,NE,4.6,-,N/A,,Clear,40,2012-10-14 10:53:00
4:53 AM,51.1,48.9,92,30.06,10.0,North,4.6,-,N/A,,Scattered Clouds,360,2012-10-14 11:53:00
5:53 AM,51.1,48.9,92,30.06,10.0,North,5.8,-,N/A,,Overcast,10,2012-10-14 12:53:00
6:53 AM,51.1,48.9,92,30.05,10.0,North,6.9,-,0.00,,Scattered Clouds,350,2012-10-14 13:53:00
7:53 AM,51.1,50.0,96,30.03,10.0,NNE,3.5,-,N/A,,Clear,20,2012-10-14 14:53:00
8:53 AM,53.1,50.0,89,30.02,10.0,Calm,Calm,-,N/A,,Clear,0,2012-10-14 15:53:00
9:53 AM,54.0,51.1,90,30.01,10.0,Calm,Calm,-,N/A,,Clear,0,2012-10-14 16:53:00
10:53 AM,55.9,51.1,84,29.99,10.0,South,4.6,-,N/A,,Clear,180,2012-10-14 17:53:00
11:53 AM,57.9,51.1,78,29.99,10.0,South,3.5,-,N/A,,Clear,180,2012-10-14 18:53:00
1:53 PM,61.0,52.0,72,29.95,10.0,Calm,Calm,-,N/A,,Clear,0,2012-10-14 20:53:00
2:53 PM,63.0,51.1,65,29.93,10.0,Variable,3.5,-,N/A,,Clear,0,2012-10-14 21:53:00
3:53 PM,59.0,53.1,81,29.93,10.0,North,4.6,-,0.00,Rain,Light Rain,360,2012-10-14 22:53:00
4:53 PM,60.1,53.1,78,29.92,10.0,Calm,Calm,-,N/A,,Clear,0,2012-10-14 23:53:00
5:53 PM,62.1,52.0,70,29.91,10.0,SSW,8.1,-,N/A,,Partly Cloudy,210,2012-10-15 00:53:00
6:53 PM,61.0,51.1,70,29.90,10.0,SW,6.9,-,N/A,,Overcast,220,2012-10-15 01:53:00
7:53 PM,61.0,50.0,67,29.90,10.0,SSW,10.4,-,N/A,,Overcast,200,2012-10-15 02:53:00
8:53 PM,57.9,52.0,81,29.88,10.0,SSW,8.1,-,0.00,,Mostly Cloudy,200,2012-10-15 03:53:00
9:53 PM,57.9,51.1,78,29.88,10.0,SSW,15.0,-,N/A,,Overcast,200,2012-10-15 04:53:00
10:53 PM,57.0,52.0,83,29.88,10.0,South,12.7,-,N/A,,Clear,180,2012-10-15 05:53:00
11:53 PM,57.0,52.0,83,29.86,10.0,South,13.8,-,N/A,,Partly Cloudy,190,2012-10-15 06:53:00